Weather History for Trinity Center, CA

Change the Weather History Date:

Sunday, March 24, 2013

  Actual Average (KMHS) Record (KMHS)
Temperature  
Mean Temperature 49 °F 43 °F  
Max Temperature 66 °F 56 °F 77 °F (1960)
Min Temperature 32 °F 31 °F 19 °F (1988)
Degree Days  
Heating Degree Days 16 22  
Month to date heating degree days 558  
Since 1 July heating degree days 4533  
Cooling Degree Days 0 0  
Month to date cooling degree days 0  
Year to date cooling degree days 0  
Moisture  
Dew Point 34 °F    
Average Humidity 66    
Maximum Humidity 100    
Minimum Humidity 28    
Precipitation  
Precipitation 0.00 in 0.14 in 2.54 in (2011)
Month to date precipitation 5.00  
Year to date precipitation 19.29  
Sea Level Pressure  
Sea Level Pressure 30.11 in    
Wind  
Wind Speed 2 mph (WNW)    
Max Wind Speed 9 mph    
Max Gust Speed -    
Visibility 10 miles    
Events      
T = Trace of Precipitation, MM = Missing Value Source: NWS Daily Summary

Daily Weather History Graph

Daily Weather History Graph

Search for Another Location

Airport:

Trip Planner

Search our weather history database for the weather conditions in past years. The results will help you decide how hot, cold, wet, or windy it might be!

Date:

Astronomy

Mar. 24, 2013 Rise Set
Actual Time 7:06 AM PDT 7:27 PM PDT
Civil Twilight 6:39 AM PDT 7:55 PM PDT
Nautical Twilight 6:07 AM PDT 8:27 PM PDT
Astronomical Twilight 5:34 AM PDT 9:00 PM PDT
Moon 5:00 PM PDT (3/24) 5:21 AM PDT (3/24)
Length of Visible Light 13h 15m
Length of Day
12h 20m
Waxing Gibbous, 92% of the Moon is Illuminated
Mar 24
Waxing Gibbous
Mar 27
Full
Apr 2
Last Quarter
Apr 10
New
Apr 18
First Quarter

Hourly Weather History & Observations

Time (PDT) Temp. Windchill Dew Point Humidity Pressure Visibility Wind Dir Wind Speed Gust Speed Precip Events Conditions
12:15 AM 37.4 °F - 32.0 °F 81% 30.18 in 10.0 mi Calm Calm - N/A   Clear
12:35 AM 37.4 °F 33.8 °F 32.0 °F 81% 30.18 in 10.0 mi West 4.6 mph - N/A   Clear
12:55 AM 37.4 °F 34.9 °F 32.0 °F 81% 30.18 in 10.0 mi West 3.5 mph - N/A   Clear
1:15 AM 35.6 °F 32.8 °F 32.0 °F 87% 30.18 in 10.0 mi West 3.5 mph - N/A   Clear
1:35 AM 35.6 °F - 32.0 °F 87% 30.18 in 10.0 mi Calm Calm - N/A   Clear
1:55 AM 37.4 °F 34.9 °F 32.0 °F 81% 30.18 in 10.0 mi West 3.5 mph - N/A   Clear
2:15 AM 35.6 °F 32.8 °F 32.0 °F 87% 30.18 in 10.0 mi West 3.5 mph - N/A   Clear
2:35 AM 35.6 °F 32.8 °F 32.0 °F 87% 30.18 in 10.0 mi West 3.5 mph - N/A   Clear
2:55 AM 35.6 °F - 32.0 °F 87% 30.18 in 10.0 mi Calm Calm - N/A   Clear
3:15 AM 35.6 °F 32.8 °F 32.0 °F 87% 30.18 in 10.0 mi West 3.5 mph - N/A   Clear
3:35 AM 35.6 °F 32.8 °F 32.0 °F 87% 30.18 in 10.0 mi West 3.5 mph - N/A   Clear
3:55 AM 35.6 °F 30.7 °F 32.0 °F 87% 30.18 in 10.0 mi West 5.8 mph - N/A   Clear
4:15 AM 35.6 °F - 32.0 °F 87% 30.18 in 10.0 mi Calm Calm - N/A   Clear
4:35 AM 35.6 °F - 32.0 °F 87% 30.19 in 10.0 mi Calm Calm - N/A   Clear
4:55 AM 33.8 °F - 32.0 °F 93% 30.17 in 10.0 mi Calm Calm - N/A   Clear
5:15 AM 33.8 °F 30.8 °F 32.0 °F 93% 30.18 in 10.0 mi West 3.5 mph - N/A   Clear
5:35 AM 33.8 °F - 32.0 °F 93% 30.18 in 9.0 mi Calm Calm - N/A   Clear
5:55 AM 33.8 °F - 32.0 °F 93% 30.18 in 8.0 mi Calm Calm - N/A   Clear
6:15 AM 32.0 °F 28.7 °F 32.0 °F 100% 30.18 in 9.0 mi West 3.5 mph - N/A   Clear
6:35 AM 32.0 °F - 32.0 °F 100% 30.18 in 9.0 mi Calm Calm - N/A   Clear
6:55 AM 32.0 °F 28.7 °F 32.0 °F 100% 30.18 in 10.0 mi West 3.5 mph - N/A   Clear
7:15 AM 32.0 °F - 32.0 °F 100% 30.19 in 5.0 mi Calm Calm - N/A   Clear
7:35 AM 32.0 °F 27.5 °F 32.0 °F 100% 30.19 in 9.0 mi West 4.6 mph - N/A   Clear
7:55 AM 32.0 °F - 32.0 °F 100% 30.19 in 5.0 mi Calm Calm - N/A   Clear
8:15 AM 35.6 °F - 32.0 °F 87% 30.19 in 10.0 mi Calm Calm - N/A   Clear
8:35 AM 37.4 °F - 32.0 °F 81% 30.19 in 10.0 mi Calm Calm - N/A   Clear
8:55 AM 39.2 °F - 33.8 °F 81% 30.19 in 10.0 mi Calm Calm - N/A   Clear
9:15 AM 39.2 °F - 35.6 °F 87% 30.18 in 10.0 mi Calm Calm - N/A   Clear
9:35 AM 41.0 °F 39.0 °F 35.6 °F 81% 30.17 in 10.0 mi ENE 3.5 mph - N/A   Clear
9:55 AM 41.0 °F - 33.8 °F 76% 30.16 in 10.0 mi Calm Calm - N/A   Clear
10:15 AM 42.8 °F 41.1 °F 32.0 °F 66% 30.17 in 10.0 mi ENE 3.5 mph - N/A   Clear
10:35 AM 44.6 °F 42.2 °F 32.0 °F 61% 30.17 in 10.0 mi SSE 4.6 mph - N/A   Clear
10:55 AM 46.4 °F - 32.0 °F 57% 30.16 in 10.0 mi Calm Calm - N/A   Clear
11:15 AM 48.2 °F - 32.0 °F 54% 30.15 in 10.0 mi Calm Calm - N/A   Clear
11:35 AM 50.0 °F - 32.0 °F 50% 30.14 in 10.0 mi Calm Calm - N/A   Clear
11:55 AM 51.8 °F - 33.8 °F 50% 30.13 in 10.0 mi Calm Calm - N/A   Clear
12:15 PM 53.6 °F - 32.0 °F 44% 30.13 in 10.0 mi Calm Calm - N/A   Clear
12:35 PM 55.4 °F - 33.8 °F 44% 30.12 in 10.0 mi ENE 3.5 mph - N/A   Clear
12:55 PM 57.2 °F - 35.6 °F 44% 30.11 in 10.0 mi Calm Calm - N/A   Clear
1:15 PM 57.2 °F - 32.0 °F 38% 30.11 in 10.0 mi Calm Calm - N/A   Clear
1:30 PM 57.2 °F - 33.8 °F 41% 30.10 in 10.0 mi Calm Calm - N/A   Clear
1:55 PM 57.2 °F - 33.8 °F 41% 30.09 in 10.0 mi SSE 3.5 mph - N/A   Clear
2:15 PM 59.0 °F - 32.0 °F 36% 30.08 in 10.0 mi Calm Calm - N/A   Clear
2:35 PM 60.8 °F - 32.0 °F 34% 30.07 in 10.0 mi ENE 3.5 mph - N/A   Clear
2:55 PM 62.6 °F - 33.8 °F 34% 30.06 in 10.0 mi NE 4.6 mph - N/A   Clear
3:15 PM 64.4 °F - 35.6 °F 34% 30.05 in 10.0 mi ENE 4.6 mph - N/A   Clear
3:35 PM 64.4 °F - 35.6 °F 34% 30.04 in 10.0 mi ENE 4.6 mph - N/A   Clear
3:55 PM 64.4 °F - 35.6 °F 34% 30.03 in 10.0 mi NE 4.6 mph - N/A   Clear
4:15 PM 64.4 °F - 35.6 °F 34% 30.02 in 10.0 mi North 4.6 mph - N/A   Clear
4:35 PM 66.2 °F - 35.6 °F 32% 30.01 in 10.0 mi NE 4.6 mph - N/A   Clear
4:55 PM 66.2 °F - 33.8 °F 30% 30.00 in 10.0 mi NNE 3.5 mph - N/A   Clear
5:15 PM 66.2 °F - 32.0 °F 28% 29.99 in 10.0 mi ENE 3.5 mph - N/A   Clear
5:35 PM 66.2 °F - 35.6 °F 32% 29.99 in 10.0 mi Calm Calm - N/A   Clear
5:55 PM 66.2 °F - 32.0 °F 28% 29.99 in 10.0 mi South 4.6 mph - N/A   Clear
6:15 PM 62.6 °F - 37.4 °F 39% 29.99 in 10.0 mi South 9.2 mph - N/A   Clear
6:35 PM 62.6 °F - 35.6 °F 37% 30.00 in 10.0 mi SSE 8.1 mph - N/A   Clear
6:55 PM 59.0 °F - 37.4 °F 45% 30.00 in 10.0 mi SSW 4.6 mph - N/A   Clear
7:15 PM 55.4 °F - 39.2 °F 54% 30.01 in 9.0 mi Calm Calm - N/A   Clear
7:35 PM 55.4 °F - 39.2 °F 54% 30.01 in 10.0 mi West 6.9 mph - N/A   Clear
7:55 PM 53.6 °F - 39.2 °F 58% 30.01 in 10.0 mi West 4.6 mph - N/A   Clear
8:15 PM 51.8 °F - 39.2 °F 62% 30.02 in 10.0 mi WNW 5.8 mph - N/A   Clear
8:35 PM 50.0 °F - 39.2 °F 66% 30.02 in 10.0 mi West 3.5 mph - N/A   Clear
8:55 PM 50.0 °F - 39.2 °F 66% 30.02 in 10.0 mi West 4.6 mph - N/A   Clear
9:15 PM 50.0 °F - 37.4 °F 62% 30.04 in 10.0 mi West 3.5 mph - N/A   Clear
9:30 PM 50.0 °F - 37.4 °F 62% 30.04 in 10.0 mi NNW 3.5 mph - N/A   Clear
9:55 PM 48.2 °F - 37.4 °F 66% 30.05 in 10.0 mi WSW 5.8 mph - N/A   Clear
10:15 PM 46.4 °F 44.3 °F 39.2 °F 76% 30.05 in 10.0 mi West 4.6 mph - N/A   Clear
10:35 PM 46.4 °F 45.2 °F 37.4 °F 71% 30.06 in 10.0 mi NNW 3.5 mph - N/A   Clear
10:55 PM 46.4 °F - 37.4 °F 71% 30.06 in 10.0 mi Calm Calm - N/A   Clear
11:15 PM 44.6 °F - 37.4 °F 76% 30.06 in 10.0 mi Calm Calm - N/A   Clear
11:35 PM 41.0 °F 39.0 °F 37.4 °F 87% 30.07 in 10.0 mi West 3.5 mph - N/A   Clear
11:55 PM 41.0 °F 39.0 °F 37.4 °F 87% 30.07 in 9.0 mi West 3.5 mph - N/A   Clear